Location: Saint-Hippolyte
(43.6394°N, 4.7559°E)
Time: 16:03:56
(UTC+00:00)

H-2A R/B - Pass Details

Date: 24 October 2020
Orbit: 577 x 656 km, 98.5° (Epoch: 23 November)

Event Time Altitude Azimuth Distance (km) Brightness Sun altitude
Rises 17:16:10 0° 6° (N) 2,859 5.3 -6.7°
Reaches altitude 10° 17:18:28 10° 358° (N) 1,940 4.5 -7.1°
Maximum altitude 17:22:20 38° 291° (WNW) 914 3.6 -7.8°
Drops below altitude 10° 17:26:08 10° 223° (SW) 1,895 5.4 -8.5°
Sets 17:28:22 0° 215° (SW) 2,784 6.1 -8.9°
